Cozumel, Mexico

3:02 AM EST on February 18, 2018 (GMT -0500)
Cozumel

Weather History for MMCZ - September, 2013

Change the Weather History Date:

Saturday, September 21, 2013

  Actual Average Record
Temperature  
Mean Temperature 76 °F -  
Max Temperature 82 °F 87 °F 93 °F (1996)
Min Temperature 71 °F 75 °F 68 °F (2010)
Cooling Degree Days 12    
Growing Degree Days 26 (Base 50)    
Moisture  
Dew Point 72 °F    
Average Humidity 89    
Maximum Humidity 100    
Minimum Humidity 70    
Precipitation  
Precipitation 0.00 in - - ()
Sea Level Pressure  
Sea Level Pressure 29.79 in    
Wind  
Wind Speed 6 mph ()    
Max Wind Speed 17 mph    
Max Gust Speed -    
Visibility 7.8 miles    
Events      
Averages and records for this station are not official NWS values.
T = Trace of Precipitation, MM = Missing Value Source: Averaged Metar Reports

Daily Weather History Graph

Daily Weather History Graph

Search for Another Location

Airport or City:

Trip Planner

Search our weather history database for the weather conditions in past years. The results will help you decide how hot, cold, wet, or windy it might be!

Date:

Astronomy

Sep. 21, 2013 Rise Set
Actual Time 6:36 AM CDT 6:44 PM CDT
Civil Twilight 6:14 AM CDT 7:06 PM CDT
Nautical Twilight 5:48 AM CDT 7:32 PM CDT
Astronomical Twilight 5:22 AM CDT 7:58 PM CDT
Moon 8:20 PM CDT (9/21) 8:31 AM CDT (9/21)
Length of Visible Light 12h 52m
Length of Day
12h 08m
Waning Gibbous, 94% of the Moon is Illuminated
Sep 21
Waning Gibbous
Sep 26
Last Quarter
Oct 4
New
Oct 11
First Quarter
Oct 18
Full

Hourly Weather History & Observations

Time (CDT) Temp. Heat Index Dew Point Humidity Pressure Visibility Wind Dir Wind Speed Gust Speed Precip Events Conditions
12:44 AM 73.4 °F - 73.4 °F 100% 29.85 in 7.0 mi ESE 4.6 mph - N/A   Partly Cloudy
1:41 AM 71.6 °F - 71.6 °F 100% 29.84 in 7.0 mi ESE 3.5 mph - N/A   Clear
2:40 AM 71.6 °F - 71.6 °F 100% 29.82 in 7.0 mi Calm Calm - N/A   Clear
3:41 AM 71.6 °F - 71.6 °F 100% 29.82 in 7.0 mi Calm Calm - N/A   Clear
4:46 AM 71.6 °F - 71.6 °F 100% 29.78 in 7.0 mi Calm Calm - N/A   Clear
5:42 AM 71.6 °F - 71.6 °F 100% 29.77 in 7.0 mi SE 3.5 mph - N/A   Clear
6:44 AM 71.6 °F - 71.6 °F 100% 29.80 in 7.0 mi SE 6.9 mph - N/A   Scattered Clouds
7:41 AM 75.2 °F - 73.4 °F 94% 29.81 in 8.0 mi SE 9.2 mph - N/A   Scattered Clouds
8:46 AM 77.0 °F - 75.2 °F 94% 29.81 in 8.0 mi SE 12.7 mph - N/A   Mostly Cloudy
9:40 AM 80.6 °F 85.4 °F 73.4 °F 79% 29.84 in 8.0 mi SE 17.3 mph - N/A   Scattered Clouds
10:47 AM 80.6 °F 85.4 °F 73.4 °F 79% 29.83 in 8.0 mi SE 17.3 mph - N/A   Scattered Clouds
11:45 AM 82.4 °F 88.2 °F 73.4 °F 74% 29.83 in 8.0 mi SE 12.7 mph - N/A   Scattered Clouds
12:45 PM 80.6 °F 85.4 °F 73.4 °F 79% 29.80 in 8.0 mi SSE 9.2 mph - N/A   Scattered Clouds
1:40 PM 80.6 °F 85.4 °F 73.4 °F 79% 29.79 in 8.0 mi SSE 10.4 mph - N/A   Scattered Clouds
2:51 PM 82.4 °F 87.2 °F 71.6 °F 70% 29.74 in 10.0 mi South 11.5 mph - N/A   Partly Cloudy
3:43 PM 82.4 °F 87.2 °F 71.6 °F 70% 29.75 in 10.0 mi SE 9.2 mph - N/A   Clear
4:40 PM 80.6 °F 85.4 °F 73.4 °F 79% 29.72 in 10.0 mi SE 8.1 mph - N/A   Clear
5:41 PM 80.6 °F 85.4 °F 73.4 °F 79% 29.72 in 10.0 mi SE 6.9 mph - N/A   Clear
6:45 PM 77.0 °F - 73.4 °F 89% 29.73 in 8.0 mi ESE 3.5 mph - N/A   Clear
7:42 PM 73.4 °F - 71.6 °F 94% 29.75 in 7.0 mi ESE 4.6 mph - N/A   Clear
8:40 PM 73.4 °F - 71.6 °F 94% 29.76 in 7.0 mi ESE 4.6 mph - N/A   Partly Cloudy
9:40 PM 73.4 °F - 71.6 °F 94% 29.80 in 7.0 mi ESE 4.6 mph - N/A   Partly Cloudy
10:40 PM 73.4 °F - 71.6 °F 94% 29.77 in 7.0 mi SE 5.8 mph - N/A   Scattered Clouds
11:40 PM 75.2 °F - 71.6 °F 89% 29.77 in 7.0 mi ESE 5.8 mph - N/A   Scattered Clouds